FW4080 Weather Reports


time (UTC)temp
F
wind
direction
speed
knots
gust
knots
rain 1hr
in
rain 24hr
in
rain mn
in
humidity
%
barometer
mb
20260503050034 33 228 0.0 0.0 0.00 0.00 0.00 87 1018.2
20260503044531 34 228 0.0 0.0 0.00 0.00 0.00 86 1018.1
20260503043028 35 228 0.0 0.0 0.00 0.00 0.00 86 1018.1
20260503041531 35 229 0.0 0.0 0.00 0.00 0.00 84 1018.0
20260503040023 36 228 0.0 0.0 0.00 0.00 0.00 84 1018.2
20260503034523 36 228 0.0 0.0 0.00 0.00 0.00 84 1018.2
20260503033023 36 229 0.0 0.0 0.00 0.00 0.00 84 1018.2
20260503031527 35 228 0.0 0.0 0.00 0.00 0.00 82 1018.3
20260503030027 36 228 0.0 0.0 0.00 0.00 0.00 80 1018.4
20260503024521 36 228 0.0 0.0 0.00 0.00 0.00 79 1018.5
20260503023020 36 228 0.0 0.0 0.00 0.00 0.00 75 1018.5
20260503021518 38 228 0.0 0.0 0.00 0.00 0.00 73 1018.5
20260503020018 39 228 0.0 0.0 0.00 0.00 0.00 68 1018.4
20260503014517 41 228 0.0 0.0 0.00 0.00 0.00 65 1018.3
20260503013028 42 229 0.0 0.9 0.00 0.00 0.00 64 1018.2
20260503011515 42 338 0.0 0.9 0.00 0.00 0.00 62 1018.1
20260503010015 43 53 0.0 0.9 0.00 0.00 0.00 60 1018.0
20260503004515 44 214 0.0 0.9 0.00 0.02 0.00 59 1017.9
20260503003021 44 283 0.0 1.7 0.00 0.02 0.00 57 1017.9
20260503001513 44 271 0.0 0.9 0.00 0.02 0.00 56 1017.8
20260503000012 45 256 0.0 4.3 0.00 0.02 0.00 56 1017.7
20260502234518 45 68 0.0 1.7 0.00 0.02 0.00 55 1017.6
20260502233012 45 240 0.0 0.9 0.00 0.02 0.00 55 1017.6
20260502231511 45 320 0.0 2.6 0.00 0.02 0.00 54 1017.5
20260502230011 46 352 0.0 1.7 0.00 0.02 0.00 53 1017.6
20260502224510 46 89 0.0 2.6 0.00 0.02 0.00 53 1017.6
20260502223009 46 278 0.0 3.5 0.00 0.02 0.00 50 1017.5
20260502221510 47 216 0.0 4.3 0.00 0.02 0.00 49 1017.6
20260502220012 47 50 0.0 3.5 0.00 0.02 0.00 50 1017.4
20260502214506 47 356 0.0 2.6 0.00 0.02 0.00 50 1017.4
20260502213009 48 307 0.0 2.6 0.00 0.02 0.00 49 1017.4
20260502211505 47 156 0.0 2.6 0.00 0.02 0.00 52 1017.1
20260502210005 48 287 0.0 3.5 0.00 0.02 0.00 50 1017.2
20260502204505 48 104 0.9 7.0 0.00 0.02 0.00 47 1017.2
20260502203003 48 225 0.0 5.2 0.00 0.02 0.00 49 1017.3
20260502201510 49 27 0.0 5.2 0.00 0.02 0.00 48 1017.3
20260502200003 49 31 1.7 5.2 0.00 0.02 0.00 45 1017.4
20260502194502 48 15 0.0 5.2 0.00 0.02 0.00 49 1017.5
20260502193001 49 328 0.0 2.6 0.00 0.02 0.00 50 1017.6
20260502191602 49 352 0.0 4.3 0.00 0.02 0.00 50 1017.6
20260502190100 48 359 0.0 4.3 0.00 0.02 0.00 50 1017.7
20260502184604 48 134 0.9 4.3 0.00 0.02 0.00 52 1017.8
20260502183059 48 98 0.0 4.3 0.00 0.02 0.00 53 1017.7
20260502181557 49 6 0.0 3.5 0.00 0.02 0.00 51 1017.7
20260502163045 47 11 0.0 1.7 0.00 0.02 0.00 57 1018.2
20260502161543 49 82 0.0 3.5 0.00 0.02 0.00 53 1018.3
20260502151545 47 229 0.9 4.3 0.00 0.04 0.00 60 1018.4
20260502123003 38 300 0.0 2.6 0.00 0.08 0.00 90 1017.9
20260502121559 36 212 0.0 1.7 0.00 0.08 0.00 96 1017.7
20260502114601 32 318 0.0 0.9 0.00 0.08 0.00 97 1017.6
20260502113113 32 358 0.0 0.0 0.00 0.08 0.00 97 1017.7
20260502111601 31 229 0.0 0.0 0.00 0.08 0.00 97 1017.5
20260502110056 30 229 0.0 0.0 0.00 0.08 0.00 97 1017.4
20260502104607 30 229 0.0 0.0 0.00 0.08 0.00 97 1017.4
20260502103053 31 229 0.0 0.0 0.00 0.08 0.00 97 1017.4
20260502101607 31 228 0.0 0.0 0.00 0.08 0.00 97 1017.4
20260502070054 32 305 0.0 0.0 0.00 0.08 0.00 97 1017.3
20260502064534 33 304 0.0 0.0 0.00 0.08 0.00 97 1017.4
20260502063035 33 305 0.0 0.0 0.00 0.08 0.00 97 1017.4
20260502061531 33 304 0.0 0.0 0.00 0.08 0.00 96 1017.5
20260502060039 33 305 0.0 0.0 0.00 0.08 0.00 96 1017.4
20260502054541 33 305 0.0 0.0 0.00 0.08 0.00 96 1017.6
20260502053028 33 304 0.0 0.0 0.00 0.08 0.00 96 1017.8
20260502051525 34 304 0.0 0.0 0.00 0.08 0.00 96 1017.7